• Join FlightAware (Why Join?)
  • Login
  • US Flag GB Flag 
02:10 EST


 

Airport Tracker/Info


-or-


 

Live Flight TrackerFlight Track Log ✈ ASQ6130 ✈ 19-Jun-2013 ✈ KDIK - KDEN

Flight Track Log - Related Links

Times and Time Zones

All times are in EDT time to prevent confusion due to time zone crossing. See the ASQ6130 flight status page for this flight to view local times or setup timezone preferences in your user account.

Time Position Orientation Groundspeed Altitude Reporting Facility
EDT Latitude Longitude Course Direction KTS MPH feet Rate Location/Type
14:06 46.6631 -102.7897 183° South 236 272 7,800  Level Minneapolis Center
14:07 46.2721 -102.9599 192° South  Level Estimated
14:07 46.5919 -102.7953 183° South 244 281 10,200  Level Minneapolis Center
14:08 46.1670 -102.9912 192° South  Level Estimated
14:08 46.4922 -102.8022 183° South 274 315 11,300  Level Minneapolis Center
14:09 46.0689 -103.0203 192° South  Level Estimated
14:09 46.3947 -102.8136 185° South 318 366 12,800  Level Minneapolis Center
14:10 45.9706 -103.0493 192° South  Level Estimated
14:10 46.2961 -102.8194 182° South 341 392 14,400  Level Minneapolis Center
14:11 46.1928 -102.8294 184° South 357 411 16,000 1,500 Climbing Minneapolis Center
14:12 46.0903 -102.8397 184° South 365 420 17,500 1,500 Climbing Minneapolis Center
14:13 45.9847 -102.8503 184° South 374 430 19,100 1,680 Climbing Minneapolis Center
14:14 45.8581 -102.8611 183° South 380 437 21,000 1,680 Climbing Minneapolis Center
14:15 45.7511 -102.8694 183° South 383 441 22,600 1,500 Climbing Minneapolis Center
14:16 45.6431 -102.8792 184° South 386 444 24,100 1,500 Climbing Minneapolis Center
14:17 45.5369 -102.8883 183° South 387 445 25,700 1,620 Climbing Minneapolis Center
14:19 45.4086 -102.8981 183° South 387 445 27,500 1,560 Climbing Minneapolis Center
14:20 45.3028 -102.9078 184° South 384 442 29,000 1,440 Climbing Minneapolis Center
14:21 45.1983 -102.9164 183° South 380 437 30,500 1,440 Climbing Minneapolis Center
14:22 45.0947 -102.9236 183° South 376 433 32,000 1,200 Climbing Minneapolis Center
14:23 44.9906 -102.9311 183° South 374 430 33,000 480 Climbing Minneapolis Center
14:24 44.8819 -102.9414 184° South 386 444 33,000  Level Minneapolis Center
14:25 44.7381 -102.9528 183° South 420 483 33,000  Level Minneapolis Center
14:26 44.6108 -102.9628 183° South 444 511 33,000  Level Minneapolis Center
14:27 44.4844 -102.9711 183° South 453 521 33,000  Level Minneapolis Center
14:28 44.3578 -102.9828 184° South 457 526 33,000  Level Minneapolis Center
14:29 44.2283 -102.9911 183° South 462 532 33,000  Level Minneapolis Center
14:30 44.1006 -103.0042 184° South 463 533 33,000  Level Minneapolis Center
14:31 43.9497 -103.0283 187° South 460 529 33,000  Level Minneapolis Center
14:32 43.7939 -103.0569 188° South 455 524 33,000  Level Denver Center
14:33 43.6528 -103.0792 187° South 455 524 33,000  Level Denver Center
14:34 43.5317 -103.0986 187° South 456 525 33,000  Level Denver Center
14:35 43.3908 -103.1208 187° South 456 525 33,000  Level Denver Center
14:36 43.2706 -103.1394 186° South 454 522 33,000  Level Denver Center
14:38 43.1311 -103.1622 187° South 453 521 33,000  Level Denver Center
14:39 43.0117 -103.1803 186° South 450 518 33,000  Level Denver Center
14:40 42.8728 -103.2036 187° South 450 518 33,000  Level Denver Center
14:41 42.7544 -103.2225 187° South 448 516 33,000  Level Denver Center
14:42 42.6161 -103.2447 187° South 447 514 33,000  Level Denver Center
14:43 42.4747 -103.2661 186° South 451 519 33,000  Level Denver Center
14:44 42.3333 -103.2897 187° South 455 524 33,000  Level Denver Center
14:45 42.2136 -103.3078 186° South 453 521 33,000  Level Denver Center
14:46 42.0742 -103.3300 187° South 451 519 33,000  Level Denver Center
14:47 41.9550 -103.3483 187° South 450 518 33,000  Level Denver Center
14:48 41.8161 -103.3708 187° South 448 516 33,000  Level Denver Center
14:49 41.6975 -103.3889 186° South 448 516 33,000  Level Denver Center
14:50 41.5581 -103.4111 187° South 450 518 33,000 -360 Level Denver Center
14:51 41.4397 -103.4286 186° South 446 513 32,300 -540 Descending Denver Center
14:52 41.3206 -103.4458 186° South 449 517 32,000 -180 Descending Denver Center
14:53 41.1803 -103.4689 187° South 452 520 32,000  Level Denver Center
14:54 41.0614 -103.4850 186° South 448 516 32,000 -240 Level Denver Center
14:55 40.9344 -103.5072 188° South 449 517 31,600 -1,200 Descending Denver Center
14:56 40.8317 -103.5906 212° Southwest 433 498 29,600 -2,520 Descending Denver Center
14:57 40.7092 -103.6958 213° Southwest 439 505 26,400 -2,700 Descending Denver Center
14:58 40.6083 -103.7825 213° Southwest 433 498 24,100 -2,280 Descending Denver Center
14:59 40.5133 -103.8661 214° Southwest 415 478 21,700 -3,120 Descending Denver Center
15:00 40.4203 -103.9511 215° Southwest 388 447 17,700 -2,520 Descending Denver Center
15:02 40.3631 -104.0406 230° Southwest 321 369 16,500 -1,260 Descending Denver Center
15:03 40.3539 -104.1550 264° West 293 337 15,100 -1,440 Descending Denver Center
15:04 40.3347 -104.2533 256° West 293 337 13,500 -1,560 Descending Denver Center
15:05 40.2953 -104.3531 243° Southwest 288 331 11,900 -1,560 Descending Denver Center
15:06 40.2592 -104.4447 243° Southwest 285 328 10,300 -1,320 Descending Denver Center
15:07 40.2214 -104.5425 243° Southwest 281 323 9,200 -780 Descending Denver Center
15:08 40.1764 -104.6186 232° Southwest 265 305 8,800 -720 Descending Denver Center
15:09 40.1092 -104.6733 212° Southwest 266 306 7,800 -1,020 Descending Denver Center